{"data":{"norad_id":82043,"intl_designator":"","name":"UNKNOWN","alt_names":[],"object_type":"UNKNOWN","status":"UNKNOWN","operator":null,"country":null,"launch_date":null,"launch_site_code":null,"launch_vehicle":null,"mission":null,"orbit_class":"UNKNOWN","rcs_meters":null,"size_class":null,"mass_kg":null,"dimensions":null,"purposes":[],"wikipedia_slug":null,"has_3d_model":false,"image_url":null,"decayed_at":null,"tle_current":{"epoch":"2026-09-18T14:04:53.959296Z","epoch_age_seconds":179776,"freshness":"STALE","line1":"1 82043U          26261.58673564  .00000823  00000+0  23472-3 0  9991","line2":"2 82043  97.9657  32.6845 0226711 321.3357  37.1783 14.33842652613932","mean_motion":14.33842652,"eccentricity":0.0226711,"inclination_deg":97.9657,"raan_deg":32.6845,"arg_perigee_deg":321.3357,"mean_anomaly_deg":37.1783,"bstar":0.00023472,"rev_number":61393,"period_min":100.42942982561,"perigee_km":616.65684444272,"apogee_km":941.17333162886,"semimajor_km":7157.0520880358,"source":"CELESTRAK","updated_at":"2026-09-20T09:00:32.429643Z"}}}